| time (UTC) | temp F | wind direction | speed MPH | gust MPH | rain 1hr in | rain 24hr in | rain mn in | humidity % | barometer mb |
| 20260903014304 | 74 | 109 | 7.0 | 12.0 | 0.00 | 0.03 | 0.00 | 88 | 1017.2 |
| 20260903013805 | 74 | 105 | 7.0 | 12.0 | 0.00 | 0.05 | 0.00 | 88 | 1017.2 |
| 20260903013304 | 74 | 102 | 9.0 | 13.0 | 0.00 | 0.06 | 0.00 | 88 | 1017.3 |
| 20260903012306 | 75 | 91 | 5.0 | 12.0 | 0.00 | 0.16 | 0.00 | 87 | 1017.7 |
| 20260903011809 | 75 | 105 | 7.0 | 12.0 | 0.00 | 0.47 | 0.00 | 87 | 1017.6 |
| 20260903010804 | 75 | 104 | 6.0 | 9.0 | 0.00 | 1.13 | 0.00 | 87 | 1017.5 |
| 20260903010304 | 74 | 105 | 7.0 | 12.0 | 0.00 | 1.27 | 0.00 | 87 | 1017.5 |
| 20260903005805 | 75 | 102 | 6.0 | 10.0 | 0.00 | 1.42 | 0.00 | 87 | 1017.6 |
| 20260903005306 | 75 | 98 | 6.0 | 9.0 | 0.00 | 1.56 | 0.00 | 87 | 1017.6 |
| 20260903004304 | 75 | 98 | 6.0 | 12.0 | 0.00 | 1.67 | 0.00 | 87 | 1017.5 |
| 20260903003304 | 74 | 102 | 6.0 | 10.0 | 0.00 | 1.71 | 0.00 | 87 | 1017.2 |
| 20260903002306 | 74 | 102 | 5.0 | 12.0 | 0.00 | 1.72 | 0.00 | 87 | 1017.0 |
| 20260903001804 | 74 | 101 | 5.0 | 12.0 | 0.00 | 1.74 | 0.00 | 87 | 1017.0 |
| 20260903001304 | 74 | 104 | 9.0 | 12.0 | 0.00 | 1.74 | 0.00 | 86 | 1016.9 |
| 20260903000304 | 74 | 108 | 7.0 | 12.0 | 0.00 | 1.74 | 0.00 | 86 | 1016.9 |
| 20260902235306 | 74 | 101 | 9.0 | 12.0 | 0.00 | 1.74 | 0.00 | 86 | 1016.7 |
| 20260902234804 | 74 | 102 | 7.0 | 12.0 | 0.00 | 1.74 | 0.00 | 86 | 1016.6 |
| 20260902233804 | 74 | 90 | 9.0 | 13.0 | 0.00 | 1.74 | 0.00 | 86 | 1016.6 |
| 20260902233303 | 74 | 101 | 7.0 | 13.0 | 0.00 | 1.74 | 0.00 | 86 | 1016.6 |
| 20260902231303 | 74 | 89 | 7.0 | 13.0 | 0.00 | 1.74 | 0.00 | 85 | 1016.8 |
| 20260902230804 | 74 | 95 | 7.0 | 13.0 | 0.00 | 1.74 | 0.00 | 85 | 1016.7 |
| 20260902230304 | 74 | 88 | 8.0 | 13.0 | 0.00 | 1.74 | 0.00 | 85 | 1016.7 |
| 20260902224803 | 74 | 97 | 9.0 | 14.0 | 0.00 | 1.74 | 0.00 | 85 | 1017.1 |
| 20260902223803 | 74 | 99 | 8.0 | 13.0 | 0.00 | 1.74 | 0.00 | 85 | 1017.2 |
| 20260902222803 | 75 | 80 | 7.0 | 12.0 | 0.00 | 1.74 | 0.00 | 85 | 1017.5 |
| 20260902221804 | 75 | 74 | 5.0 | 14.0 | 0.00 | 1.74 | 0.00 | 85 | 1017.6 |
| 20260902221304 | 75 | 95 | 7.0 | 12.0 | 0.00 | 1.74 | 0.00 | 84 | 1017.6 |
| 20260902214808 | 75 | 99 | 6.0 | 10.0 | 0.00 | 1.74 | 0.00 | 84 | 1017.8 |
| 20260902214307 | 75 | 95 | 6.0 | 10.0 | 0.00 | 1.74 | 0.00 | 84 | 1017.7 |
| 20260902213807 | 75 | 97 | 6.0 | 12.0 | 0.00 | 1.74 | 0.00 | 84 | 1017.8 |
| 20260902213307 | 75 | 106 | 5.0 | 9.0 | 0.00 | 1.74 | 0.00 | 84 | 1017.8 |
| 20260902212813 | 75 | 82 | 5.0 | 12.0 | 0.00 | 1.74 | 0.00 | 84 | 1017.8 |
| 20260902211307 | 75 | 81 | 6.0 | 12.0 | 0.00 | 1.74 | 0.00 | 83 | 1017.4 |
| 20260902204808 | 75 | 87 | 5.0 | 10.0 | 0.00 | 1.74 | 0.00 | 83 | 1017.3 |
| 20260902204307 | 75 | 98 | 7.0 | 12.0 | 0.00 | 1.74 | 0.00 | 84 | 1017.2 |
| 20260902203808 | 75 | 100 | 7.0 | 10.0 | 0.00 | 1.74 | 0.00 | 83 | 1017.3 |
| 20260902203307 | 75 | 101 | 7.0 | 12.0 | 0.00 | 1.74 | 0.00 | 83 | 1017.3 |
| 20260902202807 | 75 | 103 | 7.0 | 10.0 | 0.00 | 1.74 | 0.00 | 83 | 1017.4 |
| 20260902201808 | 75 | 96 | 6.0 | 12.0 | 0.00 | 1.74 | 0.00 | 83 | 1017.6 |
| 20260902200808 | 75 | 104 | 6.0 | 10.0 | 0.00 | 1.74 | 0.00 | 83 | 1017.7 |
| 20260902195308 | 76 | 106 | 5.0 | 10.0 | 0.00 | 1.74 | 0.00 | 82 | 1017.7 |
| 20260902194807 | 76 | 87 | 5.0 | 10.0 | 0.00 | 1.74 | 0.00 | 82 | 1017.8 |
| 20260902193808 | 76 | 94 | 3.0 | 7.0 | 0.00 | 1.74 | 0.00 | 82 | 1017.9 |
| 20260902193307 | 76 | 95 | 5.0 | 10.0 | 0.00 | 1.74 | 0.00 | 81 | 1017.7 |
| 20260902192808 | 76 | 81 | 3.0 | 9.0 | 0.00 | 1.74 | 0.00 | 82 | 1017.8 |
| 20260902192307 | 76 | 103 | 6.0 | 10.0 | 0.00 | 1.74 | 0.00 | 82 | 1017.8 |
| 20260902191308 | 76 | 104 | 6.0 | 9.0 | 0.00 | 1.74 | 0.00 | 81 | 1018.0 |
| 20260902190807 | 76 | 105 | 7.0 | 12.0 | 0.00 | 1.74 | 0.00 | 81 | 1018.2 |
| 20260902190307 | 76 | 103 | 5.0 | 10.0 | 0.00 | 1.74 | 0.00 | 80 | 1018.3 |
| 20260902185308 | 76 | 104 | 6.0 | 10.0 | 0.00 | 1.74 | 0.00 | 80 | 1018.4 |
| 20260902184307 | 77 | 102 | 5.0 | 8.0 | 0.00 | 1.74 | 0.00 | 80 | 1018.0 |
| 20260902181807 | 78 | 77 | 3.0 | 8.0 | 0.00 | 1.74 | 0.00 | 78 | 1018.7 |
| 20260902181307 | 77 | 89 | 5.0 | 12.0 | 0.00 | 1.74 | 0.00 | 78 | 1018.7 |
| 20260902175808 | 78 | 78 | 6.0 | 12.0 | 0.00 | 1.74 | 0.00 | 78 | 1018.9 |
| 20260902173808 | 78 | 69 | 7.0 | 12.0 | 0.00 | 1.74 | 0.00 | 78 | 1018.5 |
| 20260902173308 | 78 | 70 | 6.0 | 12.0 | 0.00 | 1.74 | 0.00 | 79 | 1018.5 |
| 20260902172808 | 78 | 73 | 6.0 | 12.0 | 0.00 | 1.74 | 0.00 | 79 | 1018.5 |
| 20260902172308 | 78 | 101 | 7.0 | 12.0 | 0.00 | 1.74 | 0.00 | 78 | 1018.5 |
| 20260902171807 | 78 | 80 | 6.0 | 12.0 | 0.00 | 1.74 | 0.00 | 79 | 1018.4 |
| 20260902170808 | 78 | 90 | 7.0 | 12.0 | 0.00 | 1.74 | 0.00 | 78 | 1018.4 |
| 20260902170308 | 78 | 72 | 6.0 | 12.0 | 0.00 | 1.74 | 0.00 | 79 | 1018.6 |
| 20260902164807 | 78 | 68 | 5.0 | 12.0 | 0.00 | 1.74 | 0.00 | 79 | 1018.7 |
| 20260902162307 | 78 | 74 | 6.0 | 10.0 | 0.00 | 1.74 | 0.00 | 78 | 1018.6 |
| 20260902161307 | 78 | 99 | 7.0 | 12.0 | 0.00 | 1.74 | 0.00 | 78 | 1018.6 |
| 20260902160807 | 78 | 99 | 7.0 | 13.0 | 0.00 | 1.74 | 0.00 | 78 | 1018.6 |
| 20260902155307 | 78 | 96 | 9.0 | 15.0 | 0.00 | 1.74 | 0.00 | 79 | 1018.5 |
| 20260902153807 | 78 | 93 | 6.0 | 14.0 | 0.00 | 1.74 | 0.00 | 79 | 1018.5 |
| 20260902153307 | 77 | 93 | 8.0 | 13.0 | 0.00 | 1.74 | 0.00 | 80 | 1018.6 |
| 20260902145307 | 77 | 97 | 8.0 | 15.0 | 0.00 | 1.74 | 0.00 | 81 | 1018.9 |
| 20260902144307 | 76 | 95 | 7.0 | 15.0 | 0.00 | 1.74 | 0.00 | 83 | 1018.6 |
| 20260902142807 | 76 | 99 | 8.0 | 13.0 | 0.00 | 1.74 | 0.00 | 84 | 1018.8 |
| 20260902140807 | 76 | 93 | 6.0 | 12.0 | 0.00 | 1.74 | 0.00 | 84 | 1018.8 |
| 20260902140307 | 76 | 93 | 7.0 | 12.0 | 0.00 | 1.74 | 0.00 | 84 | 1018.7 |
| 20260902135307 | 76 | 98 | 6.0 | 12.0 | 0.00 | 1.74 | 0.00 | 85 | 1018.4 |
| 20260902133807 | 75 | 89 | 8.0 | 14.0 | 0.00 | 1.74 | 0.00 | 86 | 1018.2 |
| 20260902132807 | 75 | 93 | 7.0 | 12.0 | 0.00 | 1.74 | 0.00 | 87 | 1018.0 |
| 20260902131807 | 74 | 96 | 8.0 | 14.0 | 0.00 | 1.74 | 0.00 | 88 | 1018.0 |
| 20260902131307 | 74 | 91 | 7.0 | 14.0 | 0.00 | 1.74 | 0.00 | 88 | 1017.9 |
| 20260902130307 | 74 | 92 | 6.0 | 12.0 | 0.00 | 1.74 | 0.00 | 88 | 1017.8 |
| 20260902125307 | 74 | 95 | 9.0 | 12.0 | 0.00 | 1.74 | 0.00 | 88 | 1017.9 |
| 20260902124309 | 74 | 94 | 7.0 | 12.0 | 0.00 | 1.74 | 0.00 | 88 | 1018.0 |
| 20260902123807 | 74 | 87 | 6.0 | 12.0 | 0.00 | 1.74 | 0.00 | 89 | 1017.9 |
| 20260902122307 | 74 | 92 | 7.0 | 12.0 | 0.00 | 1.74 | 0.00 | 90 | 1017.8 |
| 20260902120307 | 73 | 86 | 6.0 | 14.0 | 0.00 | 1.74 | 0.00 | 90 | 1017.9 |
| 20260902115309 | 73 | 82 | 7.0 | 13.0 | 0.00 | 1.74 | 0.00 | 90 | 1017.7 |
| 20260902113808 | 73 | 79 | 6.0 | 12.0 | 0.00 | 1.74 | 0.00 | 90 | 1017.7 |
| 20260902112307 | 73 | 69 | 6.0 | 12.0 | 0.00 | 1.74 | 0.00 | 91 | 1017.8 |
| 20260902110807 | 73 | 93 | 5.0 | 12.0 | 0.00 | 1.74 | 0.00 | 90 | 1017.7 |
| 20260902110307 | 73 | 82 | 6.0 | 12.0 | 0.00 | 1.74 | 0.00 | 90 | 1017.6 |
| 20260902103807 | 74 | 71 | 7.0 | 13.0 | 0.00 | 1.74 | 0.00 | 89 | 1017.5 |
| 20260902103307 | 74 | 83 | 8.0 | 14.0 | 0.00 | 1.74 | 0.00 | 89 | 1017.5 |
| 20260902102807 | 74 | 96 | 7.0 | 14.0 | 0.00 | 1.74 | 0.00 | 89 | 1017.5 |
| 20260902102308 | 74 | 86 | 6.0 | 15.0 | 0.00 | 1.74 | 0.00 | 89 | 1017.4 |
| 20260902101807 | 74 | 75 | 6.0 | 13.0 | 0.00 | 1.74 | 0.00 | 89 | 1017.4 |
| 20260902101307 | 74 | 70 | 7.0 | 14.0 | 0.00 | 1.74 | 0.00 | 89 | 1017.4 |
| 20260902100807 | 74 | 70 | 7.0 | 13.0 | 0.00 | 1.74 | 0.00 | 89 | 1017.3 |
| 20260902094807 | 74 | 73 | 6.0 | 10.0 | 0.00 | 1.74 | 0.00 | 89 | 1017.0 |
| 20260902094307 | 74 | 62 | 7.0 | 14.0 | 0.00 | 1.74 | 0.00 | 89 | 1016.9 |
| 20260902093807 | 74 | 72 | 7.0 | 13.0 | 0.00 | 1.74 | 0.00 | 89 | 1016.8 |
| 20260902092808 | 74 | 87 | 8.0 | 12.0 | 0.00 | 1.74 | 0.00 | 90 | 1016.7 |
| 20260902091308 | 74 | 73 | 7.0 | 12.0 | 0.00 | 1.74 | 0.00 | 90 | 1016.6 |
| 20260902085807 | 74 | 56 | 7.0 | 12.0 | 0.00 | 1.74 | 0.00 | 90 | 1016.5 |
| 20260902085306 | 74 | 88 | 6.0 | 12.0 | 0.00 | 1.74 | 0.00 | 90 | 1016.5 |
| 20260902082808 | 74 | 88 | 7.0 | 12.0 | 0.00 | 1.74 | 0.00 | 91 | 1016.4 |
| 20260902080307 | 74 | 65 | 7.0 | 13.0 | 0.00 | 1.74 | 0.00 | 91 | 1016.0 |
| 20260902075807 | 74 | 76 | 8.0 | 14.0 | 0.00 | 1.74 | 0.00 | 91 | 1016.1 |
| 20260902074806 | 74 | 69 | 8.0 | 13.0 | 0.00 | 1.74 | 0.00 | 91 | 1016.2 |
| 20260902074307 | 74 | 69 | 7.0 | 13.0 | 0.00 | 1.74 | 0.00 | 91 | 1016.2 |
| 20260902073307 | 74 | 79 | 6.0 | 13.0 | 0.00 | 1.74 | 0.00 | 92 | 1016.1 |
| 20260902072807 | 74 | 53 | 6.0 | 13.0 | 0.00 | 1.74 | 0.00 | 92 | 1016.0 |
| 20260902072309 | 74 | 65 | 6.0 | 12.0 | 0.00 | 1.74 | 0.00 | 92 | 1016.0 |
| 20260902071307 | 74 | 58 | 8.0 | 12.0 | 0.00 | 1.74 | 0.00 | 92 | 1015.9 |
| 20260902070807 | 74 | 65 | 8.0 | 12.0 | 0.00 | 1.74 | 0.00 | 92 | 1015.9 |
| 20260902070307 | 74 | 58 | 6.0 | 12.0 | 0.00 | 1.74 | 0.00 | 92 | 1015.9 |
| 20260902065807 | 74 | 54 | 9.0 | 16.0 | 0.00 | 1.74 | 0.00 | 92 | 1015.8 |
| 20260902063807 | 74 | 60 | 6.0 | 12.0 | 0.00 | 1.74 | 0.00 | 92 | 1015.9 |
| 20260902062807 | 74 | 70 | 7.0 | 14.0 | 0.00 | 1.74 | 0.00 | 93 | 1015.7 |
| 20260902061807 | 74 | 59 | 9.0 | 14.0 | 0.00 | 1.74 | 0.00 | 93 | 1015.6 |
| 20260902061307 | 74 | 54 | 6.0 | 13.0 | 0.00 | 1.74 | 0.00 | 93 | 1015.6 |
| 20260902060807 | 74 | 54 | 6.0 | 12.0 | 0.00 | 1.74 | 0.00 | 93 | 1015.7 |
| 20260902055807 | 74 | 37 | 6.0 | 14.0 | 0.00 | 1.74 | 0.00 | 93 | 1015.6 |
| 20260902053807 | 74 | 64 | 6.0 | 15.0 | 0.00 | 1.74 | 0.00 | 93 | 1015.7 |
| 20260902053307 | 74 | 70 | 8.0 | 15.0 | 0.00 | 1.74 | 0.00 | 93 | 1015.6 |
| 20260902051807 | 74 | 41 | 7.0 | 15.0 | 0.00 | 1.74 | 0.00 | 93 | 1015.7 |
| 20260902045807 | 74 | 50 | 6.0 | 12.0 | 0.00 | 1.74 | 0.00 | 93 | 1015.6 |
| 20260902045307 | 74 | 49 | 6.0 | 13.0 | 0.00 | 1.74 | 0.00 | 92 | 1015.6 |
| 20260902043807 | 74 | 34 | 7.0 | 13.0 | 0.00 | 1.74 | 0.00 | 92 | 1015.6 |
| 20260902043307 | 74 | 30 | 7.0 | 13.0 | 0.00 | 1.74 | 0.00 | 92 | 1015.6 |
| 20260902042807 | 74 | 24 | 8.0 | 16.0 | 0.00 | 1.74 | 0.00 | 92 | 1015.5 |
| 20260902042309 | 74 | 36 | 9.0 | 15.0 | 0.00 | 1.74 | 0.00 | 92 | 1015.5 |
| 20260902041807 | 74 | 26 | 9.0 | 15.0 | 0.00 | 1.74 | 0.00 | 92 | 1015.4 |
| 20260902040838 | 74 | 25 | 12.0 | 16.0 | 0.00 | 1.74 | 0.00 | 92 | 1015.3 |
| 20260902040308 | 74 | 25 | 10.0 | 15.0 | 0.00 | 1.74 | 0.00 | 92 | 1015.3 |
| 20260902035807 | 74 | 33 | 9.0 | 15.0 | 0.00 | 1.74 | 1.74 | 92 | 1015.1 |
| 20260902035307 | 74 | 29 | 7.0 | 12.0 | 0.00 | 1.74 | 1.74 | 92 | 1015.0 |
| 20260902034807 | 73 | 30 | 7.0 | 12.0 | 0.00 | 1.74 | 1.74 | 92 | 1015.0 |
| 20260902033807 | 73 | 353 | 9.0 | 13.0 | 0.00 | 1.74 | 1.74 | 92 | 1015.0 |
| 20260902033307 | 73 | 349 | 11.0 | 14.0 | 0.01 | 1.74 | 1.74 | 92 | 1015.0 |
| 20260902032807 | 72 | 350 | 10.0 | 12.0 | 0.01 | 1.74 | 1.74 | 92 | 1014.9 |
| 20260902032307 | 72 | 346 | 9.0 | 13.0 | 0.01 | 1.74 | 1.74 | 92 | 1014.7 |
| 20260902030807 | 72 | 324 | 2.0 | 6.0 | 0.01 | 1.74 | 1.74 | 92 | 1014.8 |
| 20260902024807 | 72 | 253 | 4.0 | 12.0 | 0.02 | 1.74 | 1.74 | 91 | 1014.8 |
| 20260902024307 | 72 | 250 | 6.0 | 15.0 | 0.03 | 1.74 | 1.74 | 91 | 1015.0 |
| 20260902023307 | 73 | 241 | 7.0 | 12.0 | 0.05 | 1.73 | 1.73 | 92 | 1015.2 |
| 20260902021806 | 72 | 255 | 2.0 | 3.0 | 0.46 | 1.73 | 1.73 | 91 | 1015.4 |
| 20260902020307 | 73 | 311 | 6.0 | 14.0 | 1.26 | 1.73 | 1.73 | 91 | 1014.8 |